Date String (YYYY-MM-DD hh:mm:ss) UTC,Instrument flags,absolute air pressure of the measurement (hPa),sample flow rate (lpm),inlet stack bypass flow (lpm),air temperature of the measurement (°C),ambient temperature measured by the external sensor (°C),aerosol sample conditioner tube jacket temperature (°C),OPC LED temperature (°C),internal box temperature (°C),relative humidity of the measurement (%),span deviation,mass concentration of particles derived from Lorenz-Mie calculation of OPC scattering (μg/m³),mass concentration of particles derived from Lorenz-Mie calculation of OPC scattering (μg/m³),mass concentration of particles derived from Lorenz-Mie calculation of OPC scattering (μg/m³)
DateTimeUTC,F1_M11,P_M11,Q1_M11,Q2_M11,T1_M11,T2_M11,T3_M11,T4_M11,T5_M11,U1_M11,ZSPAN_M11,X2_M11,X0_M11,X1_M11
2024-01-02 22:00:00,SystemResetWarning,0830.0,5.00,000.00,025.3,024.5,000.0,033.5,026.5,12.0,0003.0,0007.07,0014.95,0006.46
2024-01-02 22:01:00,SystemResetWarning,0830.0,5.01,000.00,025.3,024.5,000.0,033.5,026.6,11.9,0003.2,0007.12,0014.97,0006.49
2024-01-02 22:02:00,SystemResetWarning,0830.1,5.00,000.00,025.3,024.5,000.0,033.5,026.5,11.9,0003.1,0007.16,0015.05,0006.50
2024-01-02 22:03:00,SystemResetWarning,0830.0,4.99,000.00,025.3,024.5,000.0,033.5,026.5,11.9,0003.4,0007.19,0015.26,0006.50
2024-01-02 22:04:00,SystemResetWarning,0830.0,5.00,000.00,025.3,024.6,000.0,033.5,026.6,11.9,0003.7,0007.22,0015.41,0006.51
2024-01-02 22:05:00,SystemResetWarning,0830.0,5.00,000.00,025.3,024.6,000.0,033.5,026.6,12.0,0004.1,0007.25,0015.29,0006.51
2024-01-02 22:06:00,SystemResetWarning,0830.0,5.01,000.00,025.3,024.6,000.0,033.5,026.6,11.9,0004.2,0007.29,0015.16,0006.52
2024-01-02 22:07:00,SystemResetWarning,0830.0,5.00,000.00,025.3,024.6,000.0,033.5,026.6,11.9,0004.8,0007.33,0015.19,0006.53
2024-01-02 22:08:00,SystemResetWarning,0830.0,5.00,000.00,025.3,024.6,000.0,033.5,026.6,11.9,0004.9,0007.35,0014.86,0006.55
2024-01-02 22:09:00,SystemResetWarning,0830.0,5.00,000.00,025.4,024.6,000.0,033.5,026.7,11.9,0005.2,0007.36,0014.32,0006.57
2024-01-02 22:10:00,SystemResetWarning,0830.0,4.99,000.00,025.4,024.7,000.0,033.5,026.7,11.9,0005.1,0007.35,0013.74,0006.61
2024-01-02 22:11:00,SystemResetWarning,0830.0,4.99,000.00,025.4,024.7,000.0,033.6,026.7,11.9,0005.1,0007.35,0012.91,0006.64
2024-01-02 22:12:00,SystemResetWarning,0830.0,5.00,000.00,025.4,024.7,000.0,033.6,026.7,11.8,0004.3,0007.36,0013.13,0006.66
2024-01-02 22:13:00,SystemResetWarning,0830.0,5.00,000.00,025.4,024.7,000.0,033.6,026.7,11.8,0000.0,0007.42,0013.58,0006.68
2024-01-02 22:14:00,SystemResetWarning,0830.0,5.01,000.00,025.4,024.7,000.0,033.6,026.8,11.9,0000.0,0007.44,0014.30,0006.71
2024-01-02 22:15:00,SystemResetWarning,0830.1,5.00,000.00,025.4,024.8,000.0,033.6,026.8,11.9,0000.0,0007.46,0014.36,0006.73
2024-01-02 22:16:00,SystemResetWarning,0830.0,5.01,000.00,025.5,024.8,000.0,033.6,026.8,11.9,0000.0,0007.49,0014.34,0006.76
2024-01-02 22:17:00,SystemResetWarning,0830.0,5.00,000.00,025.5,024.8,000.0,033.6,026.8,11.8,0000.0,0007.49,0014.33,0006.77
2024-01-02 22:18:00,SystemResetWarning,0830.1,5.00,000.00,025.5,024.8,000.0,033.6,026.8,11.8,0000.0,0007.52,0014.51,0006.78
2024-01-02 22:19:00,SystemResetWarning,0830.1,5.00,000.00,025.5,024.8,000.0,033.6,026.8,11.8,0000.0,0007.54,0014.61,0006.80
2024-01-02 22:20:00,SystemResetWarning,0830.1,5.00,000.00,025.5,024.8,000.0,033.7,026.8,11.8,0000.0,0007.57,0015.31,0006.81
2024-01-02 22:21:00,SystemResetWarning,0830.1,5.00,000.00,025.5,024.8,000.0,033.7,026.8,11.8,0000.0,0007.59,0015.49,0006.81
2024-01-02 22:22:00,SystemResetWarning,0830.1,5.00,000.00,025.5,024.8,000.0,033.7,026.8,11.8,0000.0,0007.61,0015.02,0006.83
2024-01-02 22:23:00,SystemResetWarning,0830.1,5.00,000.00,025.5,024.8,000.0,033.7,026.8,11.8,0001.9,0007.65,0014.78,0006.86
2024-01-02 22:24:00,SystemResetWarning,0830.1,5.00,000.00,025.5,024.8,000.0,033.7,026.8,11.8,0005.4,0007.65,0015.40,0006.88
2024-01-02 22:25:00,SystemResetWarning,0830.1,5.00,000.00,025.5,024.8,000.0,033.7,026.8,11.9,0005.4,0007.65,0015.19,0006.88
2024-01-02 22:26:00,SystemResetWarning,0830.0,4.99,000.00,025.6,024.9,000.0,033.7,026.8,11.9,0005.3,0007.64,0015.57,0006.88
2024-01-02 22:27:00,SystemResetWarning,0830.0,5.00,000.00,025.6,024.9,000.0,033.7,026.8,11.9,0005.5,0007.62,0016.26,0006.88
2024-01-02 22:28:00,SystemResetWarning,0830.1,4.99,000.00,025.6,024.8,000.0,033.7,026.8,11.9,0005.4,0007.64,0016.84,0006.90
2024-01-02 22:29:00,SystemResetWarning,0830.1,5.01,000.00,025.6,024.8,000.0,033.7,026.8,11.8,0004.9,0007.64,0016.79,0006.93
2024-01-02 22:30:00,SystemResetWarning,0830.1,5.00,000.00,025.6,024.8,000.0,033.8,026.8,11.9,0004.5,0007.67,0017.29,0006.96
2024-01-02 22:31:00,SystemResetWarning,0830.1,4.99,000.00,025.6,024.9,000.0,033.8,026.9,11.8,0004.5,0007.70,0016.98,0006.99
2024-01-02 22:32:00,SystemResetWarning,0830.2,5.00,000.00,025.6,024.9,000.0,033.8,026.9,11.8,0004.4,0007.72,0017.90,0007.03
2024-01-02 22:33:00,SystemResetWarning,0830.1,5.00,000.00,025.6,024.9,000.0,033.8,026.9,11.9,0004.4,0007.80,0018.23,0007.06
2024-01-02 22:34:00,SystemResetWarning,0830.1,4.99,000.00,025.6,024.9,000.0,033.8,026.9,11.9,0004.5,0007.77,0018.90,0007.07
2024-01-02 22:35:00,SystemResetWarning,0830.1,5.00,000.00,025.6,024.9,000.0,033.8,026.9,11.8,0004.6,0007.79,0018.24,0007.09
2024-01-02 22:36:00,SystemResetWarning,0830.1,5.00,000.00,025.7,024.9,000.0,033.8,026.9,11.8,0003.1,0007.87,0018.18,0007.14
2024-01-02 22:37:00,SystemResetWarning,0830.1,4.99,000.00,025.7,024.9,000.0,033.8,026.9,11.8,0005.0,0007.96,0018.49,0007.18
2024-01-02 22:38:00,SystemResetWarning,0830.1,5.00,000.00,025.7,024.9,000.0,033.8,026.9,11.8,0005.2,0008.06,0019.46,0007.23
2024-01-02 22:39:00,SystemResetWarning,0830.1,5.01,000.00,025.7,024.9,000.0,033.8,026.9,11.8,0003.2,0008.12,0019.24,0007.26
2024-01-02 22:40:00,SystemResetWarning,0830.1,5.01,000.00,025.7,024.9,000.0,033.8,026.9,11.8,0000.0,0008.17,0019.94,0007.28
2024-01-02 22:41:00,SystemResetWarning,0830.1,5.00,000.00,025.7,025.0,000.0,033.8,026.9,11.8,0001.3,0008.23,0019.81,0007.30
2024-01-02 22:42:00,SystemResetWarning,0830.1,4.99,000.00,025.7,024.9,000.0,033.9,026.9,11.8,0004.0,0008.28,0019.58,0007.32
2024-01-02 22:43:00,SystemResetWarning,0830.1,5.01,000.00,025.7,024.9,000.0,033.9,026.9,11.8,0000.9,0008.32,0019.22,0007.34
2024-01-02 22:44:00,SystemResetWarning,0830.2,5.00,000.00,025.7,024.9,000.0,033.9,026.9,11.8,0000.0,0008.31,0019.20,0007.35
2024-01-02 22:45:00,SystemResetWarning,0830.2,5.01,000.00,025.7,024.9,000.0,033.9,027.0,11.8,0003.6,0008.34,0018.60,0007.38
2024-01-02 22:46:00,SystemResetWarning,0830.3,4.99,000.00,025.7,025.0,000.0,033.9,027.0,11.8,0004.5,0008.34,0018.25,0007.39
2024-01-02 22:47:00,SystemResetWarning,0830.3,5.00,000.00,025.7,025.0,000.0,033.9,027.0,11.7,0004.1,0008.39,0018.13,0007.40
2024-01-02 22:48:00,SystemResetWarning,0830.2,4.99,000.00,025.7,025.0,000.0,033.9,027.0,11.7,0004.4,0008.38,0018.26,0007.42
2024-01-02 22:49:00,SystemResetWarning,0830.2,5.00,000.00,025.7,025.0,000.0,033.9,027.0,11.7,0004.4,0008.35,0016.95,0007.43
2024-01-02 22:50:00,SystemResetWarning,0830.2,5.01,000.00,025.7,025.0,000.0,033.9,027.1,11.7,0004.5,0008.34,0016.70,0007.44
2024-01-02 22:51:00,SystemResetWarning,0830.2,5.00,000.00,025.8,025.1,000.0,033.9,027.1,11.7,0004.3,0008.41,0016.18,0007.45
2024-01-02 22:52:00,SystemResetWarning,0830.2,5.00,000.00,025.8,025.1,000.0,033.9,027.1,11.7,0004.2,0008.44,0016.51,0007.46
2024-01-02 22:53:00,SystemResetWarning,0830.2,5.00,000.00,025.8,025.1,000.0,033.9,027.1,11.7,0004.2,0008.45,0016.64,0007.47
2024-01-02 22:54:00,SystemResetWarning,0830.3,5.00,000.00,025.8,025.1,000.0,034.0,027.1,11.7,0004.2,0008.46,0016.45,0007.48
2024-01-02 22:55:00,SystemResetWarning,0830.3,5.00,000.00,025.8,025.1,000.0,034.0,027.2,11.6,0004.3,0008.49,0017.30,0007.48
2024-01-02 22:56:00,SystemResetWarning,0830.2,5.00,000.00,025.8,025.2,000.0,034.0,027.2,11.6,0004.4,0008.55,0018.40,0007.48
2024-01-02 22:57:00,SystemResetWarning,0830.3,5.00,000.00,025.9,025.2,000.0,034.0,027.2,11.6,0004.2,0008.63,0019.48,0007.49
2024-01-02 22:58:00,SystemResetWarning,0830.2,5.00,000.00,025.9,025.2,000.0,034.0,027.2,11.6,0001.3,0008.61,0019.97,0007.51
2024-01-02 22:59:00,SystemResetWarning,0830.2,5.02,000.00,025.9,025.2,000.0,034.0,027.2,11.6,0005.0,0008.62,0019.79,0007.52
